Weather History for Raton, NM

Change the Weather History Date:

Monday, January 28, 2013

  Actual Average (KTAD) Record (KTAD)
Temperature  
Mean Temperature 42 °F 33 °F  
Max Temperature 57 °F 48 °F 70 °F (1986)
Min Temperature 28 °F 18 °F -9 °F (1966)
Degree Days  
Heating Degree Days 22 32  
Month to date heating degree days 916  
Since 1 July heating degree days 3184  
Cooling Degree Days 0 0  
Month to date cooling degree days 0  
Year to date cooling degree days 0  
Moisture  
Dew Point 25 °F    
Average Humidity 55    
Maximum Humidity 79    
Minimum Humidity 25    
Precipitation  
Precipitation 0.00 in 0.02 in 0.22 in (2005)
Month to date precipitation 0.36  
Year to date precipitation 0.36  
Sea Level Pressure  
Sea Level Pressure 29.65 in    
Wind  
Wind Speed 11 mph (SW)    
Max Wind Speed 36 mph    
Max Gust Speed 47 mph    
Visibility 10 miles    
Events      
T = Trace of Precipitation, MM = Missing Value Source: NWS Daily Summary

Daily Weather History Graph

Daily Weather History Graph

Search for Another Location

Airport:

Trip Planner

Search our weather history database for the weather conditions in past years. The results will help you decide how hot, cold, wet, or windy it might be!

Date:

Astronomy

Jan. 28, 2013 Rise Set
Actual Time 7:02 AM MST 5:19 PM MST
Civil Twilight 6:35 AM MST 5:47 PM MST
Nautical Twilight 6:04 AM MST 6:18 PM MST
Astronomical Twilight 5:33 AM MST 6:48 PM MST
Moon 7:12 PM MST (1/28) 7:33 AM MST (1/28)
Length of Visible Light 11h 11m
Length of Day
10h 16m
Full, 97% of the Moon is Illuminated
Jan 28
Full
Feb 3
Last Quarter
Feb 10
New
Feb 17
First Quarter
Feb 25
Full

Hourly Weather History & Observations

Time (MST) Temp. Windchill Dew Point Humidity Pressure Visibility Wind Dir Wind Speed Gust Speed Precip Events Conditions
12:53 AM 34.0 °F - 25.0 °F 70% 29.74 in 10.0 mi Calm Calm - N/A   Clear
1:53 AM 30.9 °F 24.3 °F 24.1 °F 76% 29.74 in 10.0 mi WSW 6.9 mph - N/A   Partly Cloudy
2:53 AM 30.9 °F 24.3 °F 24.1 °F 76% 29.72 in 10.0 mi WSW 6.9 mph - N/A   Clear
3:53 AM 28.9 °F 20.4 °F 23.0 °F 78% 29.73 in 10.0 mi West 9.2 mph - N/A   Clear
4:53 AM 33.1 °F 30.0 °F 25.0 °F 72% 29.70 in 10.0 mi South 3.5 mph - N/A   Clear
5:53 AM 32.0 °F 27.5 °F 25.0 °F 75% 29.72 in 10.0 mi WSW 4.6 mph - N/A   Clear
6:53 AM 30.9 °F 24.3 °F 25.0 °F 79% 29.75 in 10.0 mi SW 6.9 mph - N/A   Clear
7:53 AM 35.1 °F 32.2 °F 28.0 °F 76% 29.75 in 10.0 mi WSW 3.5 mph - N/A   Clear
8:53 AM 37.9 °F 32.7 °F 30.0 °F 73% 29.72 in 10.0 mi South 6.9 mph - N/A   Partly Cloudy
9:53 AM 42.1 °F 37.7 °F 30.9 °F 65% 29.70 in 10.0 mi SW 6.9 mph - N/A   Clear
10:53 AM 53.1 °F - 28.9 °F 40% 29.62 in 10.0 mi SSW 26.5 mph 33.4 mph N/A   Scattered Clouds
11:53 AM 54.0 °F - 30.0 °F 40% 29.57 in 10.0 mi South 27.6 mph 34.5 mph N/A   Mostly Cloudy
12:38 PM 57.2 °F - 21.2 °F 25% 29.66 in 10.0 mi WSW 29.9 mph 39.1 mph N/A   Scattered Clouds
12:53 PM 57.0 °F - 23.0 °F 27% 29.53 in 10.0 mi WSW 28.8 mph 36.8 mph N/A   Clear
1:53 PM 55.9 °F - 19.9 °F 25% 29.54 in 10.0 mi SW 32.2 mph 41.4 mph N/A   Clear
2:53 PM 54.0 °F - 21.0 °F 28% 29.54 in 10.0 mi SW 35.7 mph 47.2 mph N/A   Clear
3:53 PM 51.1 °F - 23.0 °F 33% 29.57 in 10.0 mi WSW 31.1 mph 40.3 mph N/A   Overcast
4:53 PM 48.9 °F - 21.0 °F 33% 29.58 in 10.0 mi WSW 27.6 mph 40.3 mph N/A   Overcast
5:09 PM 44.6 °F 36.6 °F 26.6 °F 49% 29.67 in 10.0 mi WNW 19.6 mph 25.3 mph N/A   Overcast
5:53 PM 44.1 °F 36.8 °F 27.0 °F 51% 29.62 in 10.0 mi West 16.1 mph 25.3 mph N/A   Overcast
6:53 PM 37.9 °F 32.1 °F 27.0 °F 65% 29.68 in 10.0 mi WSW 8.1 mph - N/A   Mostly Cloudy
7:53 PM 41.0 °F 32.5 °F 25.0 °F 53% 29.65 in 10.0 mi WSW 17.3 mph 24.2 mph N/A   Overcast
8:53 PM 39.0 °F 31.8 °F 24.1 °F 55% 29.65 in 10.0 mi West 11.5 mph 23.0 mph N/A   Overcast
9:53 PM 39.0 °F 29.3 °F 21.0 °F 49% 29.63 in 10.0 mi West 19.6 mph 25.3 mph N/A   Overcast
10:53 PM 36.0 °F 30.3 °F 23.0 °F 59% 29.59 in 10.0 mi South 6.9 mph - N/A   Overcast
11:53 PM 35.1 °F 32.2 °F 24.1 °F 64% 29.58 in 10.0 mi SW 3.5 mph - N/A   Overcast